Year,Month,Day,Hour,Minute,Value (Times are PST for temperature in C)
2014,09,14,00,00,11.10
2014,09,14,00,01,11.00
2014,09,14,00,02,11.00
2014,09,14,00,03,11.00
2014,09,14,00,04,10.90
2014,09,14,00,05,10.90
2014,09,14,00,06,10.90
2014,09,14,00,07,10.80
2014,09,14,00,08,10.80
2014,09,14,00,09,10.80
2014,09,14,00,10,10.80
2014,09,14,00,11,10.70
2014,09,14,00,12,10.70
2014,09,14,00,13,10.70
2014,09,14,00,14,10.70
2014,09,14,00,15,10.70
2014,09,14,00,16,10.60
2014,09,14,00,17,10.60
2014,09,14,00,18,10.60
2014,09,14,00,19,10.60
2014,09,14,00,20,10.60
2014,09,14,00,21,10.60
2014,09,14,00,22,10.60
2014,09,14,00,23,10.60
2014,09,14,00,24,10.60
2014,09,14,00,25,10.60
2014,09,14,00,26,10.60
2014,09,14,00,27,10.50
2014,09,14,00,28,10.50
2014,09,14,00,29,10.50
2014,09,14,00,30,10.50
2014,09,14,00,31,10.50
2014,09,14,00,32,10.50
2014,09,14,00,33,10.50
2014,09,14,00,34,10.60
2014,09,14,00,35,10.60
2014,09,14,00,36,10.60
2014,09,14,00,37,10.50
2014,09,14,00,38,10.60
2014,09,14,00,39,10.60
2014,09,14,00,40,10.50
2014,09,14,00,41,10.50
2014,09,14,00,42,10.50
2014,09,14,00,43,10.50
2014,09,14,00,44,10.50
2014,09,14,00,45,10.50
2014,09,14,00,46,10.60
2014,09,14,00,47,10.60
2014,09,14,00,48,10.60
2014,09,14,00,49,10.60
2014,09,14,00,50,10.60
2014,09,14,00,51,10.60
2014,09,14,00,52,10.60
2014,09,14,00,53,10.60
2014,09,14,00,54,10.60
2014,09,14,00,55,10.60
2014,09,14,00,56,10.50
2014,09,14,00,57,10.50
2014,09,14,00,58,10.50
2014,09,14,00,59,10.60
2014,09,14,01,00,10.60
2014,09,14,01,01,10.60
2014,09,14,01,02,10.60
2014,09,14,01,03,10.60
2014,09,14,01,04,10.60
2014,09,14,01,05,10.60
2014,09,14,01,06,10.50
2014,09,14,01,07,10.50
2014,09,14,01,08,10.50
2014,09,14,01,09,10.50
2014,09,14,01,10,10.50
2014,09,14,01,11,10.40
2014,09,14,01,12,10.40
2014,09,14,01,13,10.40
2014,09,14,01,14,10.40
2014,09,14,01,15,10.40
2014,09,14,01,16,10.40
2014,09,14,01,17,10.40
2014,09,14,01,18,10.40
2014,09,14,01,19,10.40
2014,09,14,01,20,10.40
2014,09,14,01,21,10.40
2014,09,14,01,22,10.40
2014,09,14,01,23,10.40
2014,09,14,01,24,10.40
2014,09,14,01,25,10.40
2014,09,14,01,26,10.40
2014,09,14,01,27,10.40
2014,09,14,01,28,10.40
2014,09,14,01,29,10.40
2014,09,14,01,30,10.40
2014,09,14,01,31,10.40
2014,09,14,01,32,10.40
2014,09,14,01,33,10.40
2014,09,14,01,34,10.40
2014,09,14,01,35,10.40
2014,09,14,01,36,10.40
2014,09,14,01,37,10.30
2014,09,14,01,38,10.40
2014,09,14,01,39,10.40
2014,09,14,01,40,10.30
2014,09,14,01,41,10.40
2014,09,14,01,42,10.40
2014,09,14,01,43,10.40
2014,09,14,01,44,10.40
2014,09,14,01,45,10.40
2014,09,14,01,46,10.50
2014,09,14,01,47,10.50
2014,09,14,01,48,10.50
2014,09,14,01,49,10.50
2014,09,14,01,50,10.50
2014,09,14,01,51,10.60
2014,09,14,01,52,10.60
2014,09,14,01,53,10.70
2014,09,14,01,54,10.70
2014,09,14,01,55,10.80
2014,09,14,01,56,10.80
2014,09,14,01,57,10.90
2014,09,14,01,58,10.90
2014,09,14,01,59,11.00
2014,09,14,02,00,11.00
2014,09,14,02,01,11.00
2014,09,14,02,02,11.10
2014,09,14,02,03,11.10
2014,09,14,02,04,11.10
2014,09,14,02,05,11.10
2014,09,14,02,06,11.10
2014,09,14,02,07,11.10
2014,09,14,02,08,11.00
2014,09,14,02,09,11.00
2014,09,14,02,10,11.00
2014,09,14,02,11,11.00
2014,09,14,02,12,11.00
2014,09,14,02,13,11.00
2014,09,14,02,14,11.00
2014,09,14,02,15,11.00
2014,09,14,02,16,11.00
2014,09,14,02,17,11.00
2014,09,14,02,18,11.00
2014,09,14,02,19,10.90
2014,09,14,02,20,10.90
2014,09,14,02,21,10.90
2014,09,14,02,22,10.90
2014,09,14,02,23,10.80
2014,09,14,02,24,10.80
2014,09,14,02,25,10.80
2014,09,14,02,26,10.80
2014,09,14,02,27,10.80
2014,09,14,02,28,10.70
2014,09,14,02,29,10.70
2014,09,14,02,30,10.70
2014,09,14,02,31,10.70
2014,09,14,02,32,10.60
2014,09,14,02,33,10.60
2014,09,14,02,34,10.60
2014,09,14,02,35,10.60
2014,09,14,02,36,10.50
2014,09,14,02,37,10.50
2014,09,14,02,38,10.50
2014,09,14,02,39,10.40
2014,09,14,02,40,10.40
2014,09,14,02,41,10.40
2014,09,14,02,42,10.40
2014,09,14,02,43,10.40
2014,09,14,02,44,10.40
2014,09,14,02,45,10.40
2014,09,14,02,46,10.40
2014,09,14,02,47,10.40
2014,09,14,02,48,10.40
2014,09,14,02,49,10.50
2014,09,14,02,50,10.50
2014,09,14,02,51,10.50
2014,09,14,02,52,10.50
2014,09,14,02,53,10.50
2014,09,14,02,54,10.50
2014,09,14,02,55,10.50
2014,09,14,02,56,10.50
2014,09,14,02,57,10.50
2014,09,14,02,58,10.50
2014,09,14,02,59,10.50
2014,09,14,03,00,10.50
2014,09,14,03,01,10.50
2014,09,14,03,02,10.40
2014,09,14,03,03,10.40
2014,09,14,03,04,10.40
2014,09,14,03,05,10.40
2014,09,14,03,06,10.40
2014,09,14,03,07,10.40
2014,09,14,03,08,10.40
2014,09,14,03,09,10.40
2014,09,14,03,10,10.40
2014,09,14,03,11,10.40
2014,09,14,03,12,10.40
2014,09,14,03,13,10.40
2014,09,14,03,14,10.30
2014,09,14,03,15,10.30
2014,09,14,03,16,10.30
2014,09,14,03,17,10.30
2014,09,14,03,18,10.30
2014,09,14,03,19,10.30
2014,09,14,03,20,10.30
2014,09,14,03,21,10.20
2014,09,14,03,22,10.20
2014,09,14,03,23,10.20
2014,09,14,03,24,10.20
2014,09,14,03,25,10.20
2014,09,14,03,26,10.20
2014,09,14,03,27,10.20
2014,09,14,03,28,10.20
2014,09,14,03,29,10.20
2014,09,14,03,30,10.20
2014,09,14,03,31,10.20
2014,09,14,03,32,10.10
2014,09,14,03,33,10.10
2014,09,14,03,34,10.10
2014,09,14,03,35,10.10
2014,09,14,03,36,10.10
2014,09,14,03,37,10.10
2014,09,14,03,38,10.10
2014,09,14,03,39,10.00
2014,09,14,03,40,10.00
2014,09,14,03,41,10.00
2014,09,14,03,42,9.90
2014,09,14,03,43,9.90
2014,09,14,03,44,9.90
2014,09,14,03,45,9.90
2014,09,14,03,46,9.80
2014,09,14,03,47,9.80
2014,09,14,03,48,9.80
2014,09,14,03,49,9.80
2014,09,14,03,50,9.80
2014,09,14,03,51,9.80
2014,09,14,03,52,9.80
2014,09,14,03,53,9.80
2014,09,14,03,54,9.80
2014,09,14,03,55,9.80
2014,09,14,03,56,9.80
2014,09,14,03,57,9.80
2014,09,14,03,58,9.80
2014,09,14,03,59,9.80
2014,09,14,04,00,9.80
2014,09,14,04,01,9.70
2014,09,14,04,02,9.80
2014,09,14,04,03,9.70
2014,09,14,04,04,9.70
2014,09,14,04,05,9.70
2014,09,14,04,06,9.70
2014,09,14,04,07,9.70
2014,09,14,04,08,9.70
2014,09,14,04,09,9.70
2014,09,14,04,10,9.70
2014,09,14,04,11,9.70
2014,09,14,04,12,9.70
2014,09,14,04,13,9.70
2014,09,14,04,14,9.80
2014,09,14,04,15,9.80
2014,09,14,04,16,9.80
2014,09,14,04,17,9.80
2014,09,14,04,18,9.80
2014,09,14,04,19,9.80
2014,09,14,04,20,9.80
2014,09,14,04,21,9.80
2014,09,14,04,22,9.80
2014,09,14,04,23,9.80
2014,09,14,04,24,9.90
2014,09,14,04,25,9.90
2014,09,14,04,26,9.90
2014,09,14,04,27,10.00
2014,09,14,04,28,10.00
2014,09,14,04,29,10.00
2014,09,14,04,30,10.00
2014,09,14,04,31,10.00
2014,09,14,04,32,10.00
2014,09,14,04,33,10.00
2014,09,14,04,34,10.00
2014,09,14,04,35,10.00
2014,09,14,04,36,10.00
2014,09,14,04,37,10.00
2014,09,14,04,38,10.00
2014,09,14,04,39,10.00
2014,09,14,04,40,10.00
2014,09,14,04,41,10.00
2014,09,14,04,42,9.90
2014,09,14,04,43,9.90
2014,09,14,04,44,9.90
2014,09,14,04,45,9.90
2014,09,14,04,46,9.90
2014,09,14,04,47,9.90
2014,09,14,04,48,9.90
2014,09,14,04,49,9.90
2014,09,14,04,50,9.90
2014,09,14,04,51,9.90
2014,09,14,04,52,9.90
2014,09,14,04,53,9.90
2014,09,14,04,54,9.80
2014,09,14,04,55,9.80
2014,09,14,04,56,9.80
2014,09,14,04,57,9.80
2014,09,14,04,58,9.80
2014,09,14,04,59,9.80
2014,09,14,05,00,9.70
2014,09,14,05,01,9.70
2014,09,14,05,02,9.70
2014,09,14,05,03,9.70
2014,09,14,05,04,9.70
2014,09,14,05,05,9.70
2014,09,14,05,06,9.70
2014,09,14,05,07,9.70
2014,09,14,05,08,9.70
2014,09,14,05,09,9.70
2014,09,14,05,10,9.70
2014,09,14,05,11,9.70
2014,09,14,05,12,9.70
2014,09,14,05,13,9.60
2014,09,14,05,14,9.60
2014,09,14,05,15,9.60
2014,09,14,05,16,9.60
2014,09,14,05,17,9.60
2014,09,14,05,18,9.60
2014,09,14,05,19,9.50
2014,09,14,05,20,9.50
2014,09,14,05,21,9.50
2014,09,14,05,22,9.40
2014,09,14,05,23,9.40
2014,09,14,05,24,9.40
2014,09,14,05,25,9.40
2014,09,14,05,26,9.40
2014,09,14,05,27,9.40
2014,09,14,05,28,9.40
2014,09,14,05,29,9.30
2014,09,14,05,30,9.30
2014,09,14,05,31,9.30
2014,09,14,05,32,9.30
2014,09,14,05,33,9.30
2014,09,14,05,34,9.30
2014,09,14,05,35,9.30
2014,09,14,05,36,9.40
2014,09,14,05,37,9.40
2014,09,14,05,38,9.50
2014,09,14,05,39,9.50
2014,09,14,05,40,9.60
2014,09,14,05,41,9.70
2014,09,14,05,42,9.80
2014,09,14,05,43,9.90
2014,09,14,05,44,10.00
2014,09,14,05,45,10.10
2014,09,14,05,46,10.20
2014,09,14,05,47,10.20
2014,09,14,05,48,10.30
2014,09,14,05,49,10.30
2014,09,14,05,50,10.40
2014,09,14,05,51,10.40
2014,09,14,05,52,10.40
2014,09,14,05,53,10.50
2014,09,14,05,54,10.50
2014,09,14,05,55,10.50
2014,09,14,05,56,10.50
2014,09,14,05,57,10.50
2014,09,14,05,58,10.50
2014,09,14,05,59,10.50
2014,09,14,06,00,10.50
2014,09,14,06,01,10.50
2014,09,14,06,02,10.40
2014,09,14,06,03,10.40
2014,09,14,06,04,10.40
2014,09,14,06,05,10.30
2014,09,14,06,06,10.30
2014,09,14,06,07,10.30
2014,09,14,06,08,10.30
2014,09,14,06,09,10.30
2014,09,14,06,10,10.20
2014,09,14,06,11,10.20
2014,09,14,06,12,10.20
2014,09,14,06,13,10.20
2014,09,14,06,14,10.20
2014,09,14,06,15,10.20
2014,09,14,06,16,10.20
2014,09,14,06,17,10.20
2014,09,14,06,18,10.10
2014,09,14,06,19,10.10
2014,09,14,06,20,10.10
2014,09,14,06,21,10.10
2014,09,14,06,22,10.10
2014,09,14,06,23,10.10
2014,09,14,06,24,10.10
2014,09,14,06,25,10.10
2014,09,14,06,26,10.20
2014,09,14,06,27,10.20
2014,09,14,06,28,10.20
2014,09,14,06,29,10.30
2014,09,14,06,30,10.30
2014,09,14,06,31,10.30
2014,09,14,06,32,10.30
2014,09,14,06,33,10.30
2014,09,14,06,34,10.30
2014,09,14,06,35,10.30
2014,09,14,06,36,10.30
2014,09,14,06,37,10.30
2014,09,14,06,38,10.30
2014,09,14,06,39,10.30
2014,09,14,06,40,10.30
2014,09,14,06,41,10.20
2014,09,14,06,42,10.20
2014,09,14,06,43,10.20
2014,09,14,06,44,10.20
2014,09,14,06,45,10.20
2014,09,14,06,46,10.20
2014,09,14,06,47,10.20
2014,09,14,06,48,10.10
2014,09,14,06,49,10.10
2014,09,14,06,50,10.10
2014,09,14,06,51,10.10
2014,09,14,06,52,10.10
2014,09,14,06,53,10.00
2014,09,14,06,54,10.00
2014,09,14,06,55,9.90
2014,09,14,06,56,9.90
2014,09,14,06,57,9.90
2014,09,14,06,58,9.80
2014,09,14,06,59,9.80
2014,09,14,07,00,9.80
2014,09,14,07,01,9.80
2014,09,14,07,02,9.80
2014,09,14,07,03,9.80
2014,09,14,07,04,9.80
2014,09,14,07,05,9.80
2014,09,14,07,06,9.70
2014,09,14,07,07,9.70
2014,09,14,07,08,9.80
2014,09,14,07,09,9.80
2014,09,14,07,10,9.80
2014,09,14,07,11,9.80
2014,09,14,07,12,9.80
2014,09,14,07,13,9.80
2014,09,14,07,14,9.70
2014,09,14,07,15,9.70
2014,09,14,07,16,9.70
2014,09,14,07,17,9.70
2014,09,14,07,18,9.70
2014,09,14,07,19,9.70
2014,09,14,07,20,9.70
2014,09,14,07,21,9.70
2014,09,14,07,22,9.70
2014,09,14,07,23,9.70
2014,09,14,07,24,9.60
2014,09,14,07,25,9.60
2014,09,14,07,26,9.60
2014,09,14,07,27,9.60
2014,09,14,07,28,9.60
2014,09,14,07,29,9.60
2014,09,14,07,30,9.60
2014,09,14,07,31,9.60
2014,09,14,07,32,9.60
2014,09,14,07,33,9.60
2014,09,14,07,34,9.60
2014,09,14,07,35,9.70
2014,09,14,07,36,9.70
2014,09,14,07,37,9.70
2014,09,14,07,38,9.70
2014,09,14,07,39,9.70
2014,09,14,07,40,9.80
2014,09,14,07,41,9.80
2014,09,14,07,42,9.80
2014,09,14,07,43,9.80
2014,09,14,07,44,9.90
2014,09,14,07,45,9.90
2014,09,14,07,46,10.00
2014,09,14,07,47,10.00
2014,09,14,07,48,10.10
2014,09,14,07,49,10.10
2014,09,14,07,50,10.20
2014,09,14,07,51,10.20
2014,09,14,07,52,10.30
2014,09,14,07,53,10.40
2014,09,14,07,54,10.40
2014,09,14,07,55,10.50
2014,09,14,07,56,10.50
2014,09,14,07,57,10.60
2014,09,14,07,58,10.70
2014,09,14,07,59,10.70
2014,09,14,08,00,10.90
2014,09,14,08,01,11.00
2014,09,14,08,02,11.20
2014,09,14,08,03,11.40
2014,09,14,08,04,11.60
2014,09,14,08,05,11.70
2014,09,14,08,06,11.90
2014,09,14,08,07,12.00
2014,09,14,08,08,12.20
2014,09,14,08,09,12.20
2014,09,14,08,10,12.40
2014,09,14,08,11,12.50
2014,09,14,08,12,12.60
2014,09,14,08,13,12.70
2014,09,14,08,14,12.80
2014,09,14,08,15,12.80
2014,09,14,08,16,12.90
2014,09,14,08,17,13.00
2014,09,14,08,18,13.10
2014,09,14,08,19,13.10
2014,09,14,08,20,13.20
2014,09,14,08,21,13.30
2014,09,14,08,22,13.40
2014,09,14,08,23,13.50
2014,09,14,08,24,13.60
2014,09,14,08,25,13.70
2014,09,14,08,26,13.80
2014,09,14,08,27,13.80
2014,09,14,08,28,13.90
2014,09,14,08,29,13.90
2014,09,14,08,30,14.00
2014,09,14,08,31,14.00
2014,09,14,08,32,14.10
2014,09,14,08,33,14.10
2014,09,14,08,34,14.20
2014,09,14,08,35,14.20
2014,09,14,08,36,14.30
2014,09,14,08,37,14.30
2014,09,14,08,38,14.40
2014,09,14,08,39,14.40
2014,09,14,08,40,14.50
2014,09,14,08,41,14.60
2014,09,14,08,42,14.70
2014,09,14,08,43,14.80
2014,09,14,08,44,14.90
2014,09,14,08,45,15.00
2014,09,14,08,46,15.00
2014,09,14,08,47,15.00
2014,09,14,08,48,15.10
2014,09,14,08,49,15.20
2014,09,14,08,50,15.30
2014,09,14,08,51,15.40
2014,09,14,08,52,15.50
2014,09,14,08,53,15.60
2014,09,14,08,54,15.70
2014,09,14,08,55,15.80
2014,09,14,08,56,15.90
2014,09,14,08,57,15.90
2014,09,14,08,58,16.00
2014,09,14,08,59,16.10
2014,09,14,09,00,16.20
2014,09,14,09,01,16.30
2014,09,14,09,02,16.40
2014,09,14,09,03,16.50
2014,09,14,09,04,16.60
2014,09,14,09,05,16.70
2014,09,14,09,06,16.70
2014,09,14,09,07,16.80
2014,09,14,09,08,16.90
2014,09,14,09,09,17.00
2014,09,14,09,10,17.10
2014,09,14,09,11,17.10
2014,09,14,09,12,17.20
2014,09,14,09,13,17.30
2014,09,14,09,14,17.30
2014,09,14,09,15,17.40
2014,09,14,09,16,17.50
2014,09,14,09,17,17.50
2014,09,14,09,18,17.60
2014,09,14,09,19,17.70
2014,09,14,09,20,17.80
2014,09,14,09,21,17.80
2014,09,14,09,22,17.90
2014,09,14,09,23,18.00
2014,09,14,09,24,18.10
2014,09,14,09,25,18.20
2014,09,14,09,26,18.20
2014,09,14,09,27,18.30
2014,09,14,09,28,18.30
2014,09,14,09,29,18.30
2014,09,14,09,30,18.30
2014,09,14,09,31,18.30
2014,09,14,09,32,18.40
2014,09,14,09,33,18.40
2014,09,14,09,34,18.40
2014,09,14,09,35,18.40
2014,09,14,09,36,18.40
2014,09,14,09,37,18.40
2014,09,14,09,38,18.40
2014,09,14,09,39,18.40
2014,09,14,09,40,18.50
2014,09,14,09,41,18.50
2014,09,14,09,42,18.50
2014,09,14,09,43,18.50
2014,09,14,09,44,18.60
2014,09,14,09,45,18.60
2014,09,14,09,46,18.60
2014,09,14,09,47,18.60
2014,09,14,09,48,18.50
2014,09,14,09,49,18.50
2014,09,14,09,50,18.40
2014,09,14,09,51,18.40
2014,09,14,09,52,18.40
2014,09,14,09,53,18.40
2014,09,14,09,54,18.40
2014,09,14,09,55,18.40
2014,09,14,09,56,18.40
2014,09,14,09,57,18.40
2014,09,14,09,58,18.40
2014,09,14,09,59,18.50
2014,09,14,10,00,18.60
2014,09,14,10,01,18.70
2014,09,14,10,02,18.80
2014,09,14,10,03,18.90
2014,09,14,10,04,19.00
2014,09,14,10,05,19.10
2014,09,14,10,06,19.20
2014,09,14,10,07,19.30
2014,09,14,10,08,19.30
2014,09,14,10,09,19.40
2014,09,14,10,10,19.50
2014,09,14,10,11,19.50
2014,09,14,10,12,19.60
2014,09,14,10,13,19.60
2014,09,14,10,14,19.70
2014,09,14,10,15,19.70
2014,09,14,10,16,19.80
2014,09,14,10,17,19.90
2014,09,14,10,18,19.90
2014,09,14,10,19,20.00
2014,09,14,10,20,20.00
2014,09,14,10,21,20.10
2014,09,14,10,22,20.10
2014,09,14,10,23,20.10
2014,09,14,10,24,20.20
2014,09,14,10,25,20.20
2014,09,14,10,26,20.20
2014,09,14,10,27,20.30
2014,09,14,10,28,20.30
2014,09,14,10,29,20.40
2014,09,14,10,30,20.40
2014,09,14,10,31,20.50
2014,09,14,10,32,20.60
2014,09,14,10,33,20.60
2014,09,14,10,34,20.60
2014,09,14,10,35,20.60
2014,09,14,10,36,20.70
2014,09,14,10,37,20.70
2014,09,14,10,38,20.70
2014,09,14,10,39,20.70
2014,09,14,10,40,20.70
2014,09,14,10,41,20.70
2014,09,14,10,42,20.70
2014,09,14,10,43,20.80
2014,09,14,10,44,20.80
2014,09,14,10,45,20.90
2014,09,14,10,46,21.00
2014,09,14,10,47,21.00
2014,09,14,10,48,21.10
2014,09,14,10,49,21.10
2014,09,14,10,50,21.10
2014,09,14,10,51,21.10
2014,09,14,10,52,21.10
2014,09,14,10,53,21.20
2014,09,14,10,54,21.20
2014,09,14,10,55,21.20
2014,09,14,10,56,21.20
2014,09,14,10,57,21.30
2014,09,14,10,58,21.30
2014,09,14,10,59,21.30
2014,09,14,11,00,21.30
2014,09,14,11,01,21.30
2014,09,14,11,02,21.30
2014,09,14,11,03,21.30
2014,09,14,11,04,21.30
2014,09,14,11,05,21.30
2014,09,14,11,06,21.20
2014,09,14,11,07,21.20
2014,09,14,11,08,21.30
2014,09,14,11,09,21.20
2014,09,14,11,10,21.20
2014,09,14,11,11,21.20
2014,09,14,11,12,21.30
2014,09,14,11,13,21.30
2014,09,14,11,14,21.30
2014,09,14,11,15,21.30
2014,09,14,11,16,21.40
2014,09,14,11,17,21.50
2014,09,14,11,18,21.60
2014,09,14,11,19,21.70
2014,09,14,11,20,21.80
2014,09,14,11,21,21.80
2014,09,14,11,22,21.80
2014,09,14,11,23,21.80
2014,09,14,11,24,21.90
2014,09,14,11,25,21.90
2014,09,14,11,26,22.00
2014,09,14,11,27,22.10
2014,09,14,11,28,22.10
2014,09,14,11,29,22.20
2014,09,14,11,30,22.20
2014,09,14,11,31,22.20
2014,09,14,11,32,22.30
2014,09,14,11,33,22.30
2014,09,14,11,34,22.30
2014,09,14,11,35,22.30
2014,09,14,11,36,22.30
2014,09,14,11,37,22.30
2014,09,14,11,38,22.30
2014,09,14,11,39,22.30
2014,09,14,11,40,22.30
2014,09,14,11,41,22.30
2014,09,14,11,42,22.30
2014,09,14,11,43,22.20
2014,09,14,11,44,22.20
2014,09,14,11,45,22.30
2014,09,14,11,46,22.30
2014,09,14,11,47,22.40
2014,09,14,11,48,22.40
2014,09,14,11,49,22.40
2014,09,14,11,50,22.40
2014,09,14,11,51,22.40
2014,09,14,11,52,22.50
2014,09,14,11,53,22.50
2014,09,14,11,54,22.60
2014,09,14,11,55,22.60
2014,09,14,11,56,22.70
2014,09,14,11,57,22.80
2014,09,14,11,58,22.80
2014,09,14,11,59,22.80
2014,09,14,12,00,22.80
2014,09,14,12,01,22.90
2014,09,14,12,02,22.90
2014,09,14,12,03,22.90
2014,09,14,12,04,22.90
2014,09,14,12,05,22.90
2014,09,14,12,06,22.90
2014,09,14,12,07,22.90
2014,09,14,12,08,22.80
2014,09,14,12,09,22.80
2014,09,14,12,10,22.80
2014,09,14,12,11,22.80
2014,09,14,12,12,22.90
2014,09,14,12,13,23.00
2014,09,14,12,14,23.00
2014,09,14,12,15,23.20
2014,09,14,12,16,23.20
2014,09,14,12,17,23.30
2014,09,14,12,18,23.40
2014,09,14,12,19,23.40
2014,09,14,12,20,23.40
2014,09,14,12,21,23.40
2014,09,14,12,22,23.50
2014,09,14,12,23,23.50
2014,09,14,12,24,23.60
2014,09,14,12,25,23.60
2014,09,14,12,26,23.60
2014,09,14,12,27,23.60
2014,09,14,12,28,23.50
2014,09,14,12,29,23.50
2014,09,14,12,30,23.50
2014,09,14,12,31,23.50
2014,09,14,12,32,23.50
2014,09,14,12,33,23.60
2014,09,14,12,34,23.70
2014,09,14,12,35,23.70
2014,09,14,12,36,23.80
2014,09,14,12,37,23.80
2014,09,14,12,38,23.80
2014,09,14,12,39,23.90
2014,09,14,12,40,23.90
2014,09,14,12,41,23.90
2014,09,14,12,42,23.90
2014,09,14,12,43,23.90
2014,09,14,12,44,23.90
2014,09,14,12,45,24.00
2014,09,14,12,46,24.10
2014,09,14,12,47,24.20
2014,09,14,12,48,24.30
2014,09,14,12,49,24.40
2014,09,14,12,50,24.40
2014,09,14,12,51,24.50
2014,09,14,12,52,24.50
2014,09,14,12,53,24.50
2014,09,14,12,54,24.50
2014,09,14,12,55,24.50
2014,09,14,12,56,24.50
2014,09,14,12,57,24.50
2014,09,14,12,58,24.50
2014,09,14,12,59,24.50
2014,09,14,13,00,24.50
2014,09,14,13,01,24.50
2014,09,14,13,02,24.60
2014,09,14,13,03,24.70
2014,09,14,13,04,24.70
2014,09,14,13,05,24.70
2014,09,14,13,06,24.80
2014,09,14,13,07,24.80
2014,09,14,13,08,24.80
2014,09,14,13,09,24.80
2014,09,14,13,10,24.80
2014,09,14,13,11,24.80
2014,09,14,13,12,24.80
2014,09,14,13,13,24.80
2014,09,14,13,14,24.80
2014,09,14,13,15,24.80
2014,09,14,13,16,24.80
2014,09,14,13,17,24.90
2014,09,14,13,18,25.00
2014,09,14,13,19,25.00
2014,09,14,13,20,25.00
2014,09,14,13,21,25.00
2014,09,14,13,22,25.00
2014,09,14,13,23,25.00
2014,09,14,13,24,25.00
2014,09,14,13,25,25.00
2014,09,14,13,26,25.00
2014,09,14,13,27,25.00
2014,09,14,13,28,25.00
2014,09,14,13,29,25.00
2014,09,14,13,30,25.10
2014,09,14,13,31,25.10
2014,09,14,13,32,25.20
2014,09,14,13,33,25.20
2014,09,14,13,34,25.20
2014,09,14,13,35,25.20
2014,09,14,13,36,25.20
2014,09,14,13,37,25.10
2014,09,14,13,38,25.10
2014,09,14,13,39,25.10
2014,09,14,13,40,25.10
2014,09,14,13,41,25.10
2014,09,14,13,42,25.10
2014,09,14,13,43,25.10
2014,09,14,13,44,25.00
2014,09,14,13,45,25.00
2014,09,14,13,46,25.00
2014,09,14,13,47,25.10
2014,09,14,13,48,25.10
2014,09,14,13,49,25.20
2014,09,14,13,50,25.20
2014,09,14,13,51,25.30
2014,09,14,13,52,25.30
2014,09,14,13,53,25.30
2014,09,14,13,54,25.30
2014,09,14,13,55,25.40
2014,09,14,13,56,25.50
2014,09,14,13,57,25.50
2014,09,14,13,58,25.60
2014,09,14,13,59,25.70
2014,09,14,14,00,25.70
2014,09,14,14,01,25.70
2014,09,14,14,02,25.70
2014,09,14,14,03,25.70
2014,09,14,14,04,25.80
2014,09,14,14,05,25.80
2014,09,14,14,06,25.90
2014,09,14,14,07,25.90
2014,09,14,14,08,25.90
2014,09,14,14,09,26.00
2014,09,14,14,10,26.10
2014,09,14,14,11,26.10
2014,09,14,14,12,26.20
2014,09,14,14,13,26.30
2014,09,14,14,14,26.40
2014,09,14,14,15,26.40
2014,09,14,14,16,26.30
2014,09,14,14,17,26.30
2014,09,14,14,18,26.30
2014,09,14,14,19,26.30
2014,09,14,14,20,26.30
2014,09,14,14,21,26.40
2014,09,14,14,22,26.40
2014,09,14,14,23,26.40
2014,09,14,14,24,26.50
2014,09,14,14,25,26.40
2014,09,14,14,26,26.30
2014,09,14,14,27,26.30
2014,09,14,14,28,26.20
2014,09,14,14,29,26.20
2014,09,14,14,30,26.20
2014,09,14,14,31,26.30
2014,09,14,14,32,26.30
2014,09,14,14,33,26.30
2014,09,14,14,34,26.30
2014,09,14,14,35,26.30
2014,09,14,14,36,26.30
2014,09,14,14,37,26.20
2014,09,14,14,38,26.20
2014,09,14,14,39,26.10
2014,09,14,14,40,26.20
2014,09,14,14,41,26.20
2014,09,14,14,42,26.20
2014,09,14,14,43,26.20
2014,09,14,14,44,26.20
2014,09,14,14,45,26.20
2014,09,14,14,46,26.20
2014,09,14,14,47,26.20
2014,09,14,14,48,26.20
2014,09,14,14,49,26.20
2014,09,14,14,50,26.20
2014,09,14,14,51,26.20
2014,09,14,14,52,26.20
2014,09,14,14,53,26.20
2014,09,14,14,54,26.30
2014,09,14,14,55,26.30
2014,09,14,14,56,26.30
2014,09,14,14,57,26.30
2014,09,14,14,58,26.30
2014,09,14,14,59,26.30
2014,09,14,15,00,26.30
2014,09,14,15,01,26.30
2014,09,14,15,02,26.30
2014,09,14,15,03,26.30
2014,09,14,15,04,26.40
2014,09,14,15,05,26.40
2014,09,14,15,06,26.40
2014,09,14,15,07,26.50
2014,09,14,15,08,26.60
2014,09,14,15,09,26.60
2014,09,14,15,10,26.70
2014,09,14,15,11,26.60
2014,09,14,15,12,26.60
2014,09,14,15,13,26.50
2014,09,14,15,14,26.40
2014,09,14,15,15,26.30
2014,09,14,15,16,26.30
2014,09,14,15,17,26.20
2014,09,14,15,18,26.20
2014,09,14,15,19,26.10
2014,09,14,15,20,26.10
2014,09,14,15,21,26.10
2014,09,14,15,22,26.20
2014,09,14,15,23,26.30
2014,09,14,15,24,26.30
2014,09,14,15,25,26.40
2014,09,14,15,26,26.50
2014,09,14,15,27,26.50
2014,09,14,15,28,26.60
2014,09,14,15,29,26.60
2014,09,14,15,30,26.60
2014,09,14,15,31,26.60
2014,09,14,15,32,26.50
2014,09,14,15,33,26.50
2014,09,14,15,34,26.50
2014,09,14,15,35,26.60
2014,09,14,15,36,26.50
2014,09,14,15,37,26.40
2014,09,14,15,38,26.40
2014,09,14,15,39,26.40
2014,09,14,15,40,26.40
2014,09,14,15,41,26.40
2014,09,14,15,42,26.30
2014,09,14,15,43,26.30
2014,09,14,15,44,26.30
2014,09,14,15,45,26.20
2014,09,14,15,46,26.20
2014,09,14,15,47,26.10
2014,09,14,15,48,26.10
2014,09,14,15,49,26.10
2014,09,14,15,50,26.20
2014,09,14,15,51,26.20
2014,09,14,15,52,26.30
2014,09,14,15,53,26.40
2014,09,14,15,54,26.40
2014,09,14,15,55,26.50
2014,09,14,15,56,26.50
2014,09,14,15,57,26.60
2014,09,14,15,58,26.70
2014,09,14,15,59,26.80
2014,09,14,16,00,26.90
2014,09,14,16,01,26.90
2014,09,14,16,02,26.90
2014,09,14,16,03,26.90
2014,09,14,16,04,26.90
2014,09,14,16,05,26.90
2014,09,14,16,06,26.90
2014,09,14,16,07,26.90
2014,09,14,16,08,26.90
2014,09,14,16,09,26.90
2014,09,14,16,10,26.80
2014,09,14,16,11,26.80
2014,09,14,16,12,26.70
2014,09,14,16,13,26.80
2014,09,14,16,14,26.80
2014,09,14,16,15,26.80
2014,09,14,16,16,26.90
2014,09,14,16,17,26.90
2014,09,14,16,18,27.00
2014,09,14,16,19,27.00
2014,09,14,16,20,27.10
2014,09,14,16,21,27.10
2014,09,14,16,22,27.20
2014,09,14,16,23,27.20
2014,09,14,16,24,27.20
2014,09,14,16,25,27.20
2014,09,14,16,26,27.10
2014,09,14,16,27,27.00
2014,09,14,16,28,26.90
2014,09,14,16,29,26.80
2014,09,14,16,30,26.80
2014,09,14,16,31,26.80
2014,09,14,16,32,26.80
2014,09,14,16,33,26.80
2014,09,14,16,34,26.80
2014,09,14,16,35,26.80
2014,09,14,16,36,26.80
2014,09,14,16,37,26.80
2014,09,14,16,38,26.80
2014,09,14,16,39,26.80
2014,09,14,16,40,26.80
2014,09,14,16,41,26.80
2014,09,14,16,42,26.80
2014,09,14,16,43,26.80
2014,09,14,16,44,26.90
2014,09,14,16,45,26.90
2014,09,14,16,46,26.90
2014,09,14,16,47,27.00
2014,09,14,16,48,27.00
2014,09,14,16,49,27.10
2014,09,14,16,50,27.20
2014,09,14,16,51,27.20
2014,09,14,16,52,27.20
2014,09,14,16,53,27.20
2014,09,14,16,54,27.10
2014,09,14,16,55,27.00
2014,09,14,16,56,26.90
2014,09,14,16,57,26.80
2014,09,14,16,58,26.80
2014,09,14,16,59,26.70
2014,09,14,17,00,26.70
2014,09,14,17,01,26.70
2014,09,14,17,02,26.70
2014,09,14,17,03,26.70
2014,09,14,17,04,26.70
2014,09,14,17,05,26.60
2014,09,14,17,06,26.50
2014,09,14,17,07,26.50
2014,09,14,17,08,26.40
2014,09,14,17,09,26.50
2014,09,14,17,10,26.50
2014,09,14,17,11,26.40
2014,09,14,17,12,26.40
2014,09,14,17,13,26.30
2014,09,14,17,14,26.30
2014,09,14,17,15,26.20
2014,09,14,17,16,26.20
2014,09,14,17,17,26.20
2014,09,14,17,18,26.10
2014,09,14,17,19,26.10
2014,09,14,17,20,26.00
2014,09,14,17,21,26.00
2014,09,14,17,22,25.90
2014,09,14,17,23,25.90
2014,09,14,17,24,25.90
2014,09,14,17,25,25.90
2014,09,14,17,26,25.90